Location: Unspecified
(0.0000°N, 0.0000°E)
Time: 06:33:21
(UTC+00:00)

Vanguard 3 - All Passes

Search period start: 20 October 2021 00:00
Search period end: 30 October 2021 00:00
Orbit: 510 x 3259 km, 33.3° (Epoch: 19 October)

Date Brightness Start Highest point End Pass type
(mag) Time Alt. Az. Time Alt. Az. Time Alt. Az.
20 Oct - 00:13:08 10° NW 00:31:19 58° NE 00:49:36 10° ESE visible
20 Oct - 02:28:51 10° WNW 02:48:47 68° SW 03:04:23 10° SE visible
20 Oct - 04:51:41 10° W 05:05:06 25° SW 05:14:59 10° SSE visible
20 Oct - 14:02:16 10° WSW 14:05:54 59° NNW 14:10:24 10° NE daylight
20 Oct - 20:47:55 10° N 20:54:47 15° NNE 21:02:59 10° NE visible
20 Oct - 22:58:08 10° NNW 23:13:28 40° NE 23:31:14 10° E visible
21 Oct - 01:11:40 10° NW 01:31:17 87° NE 01:49:09 10° SE visible
21 Oct - 03:30:26 10° W 03:48:16 41° SW 04:01:41 10° SSE visible
21 Oct - 05:59:58 10° SW 06:05:11 12° SSW 06:09:39 10° S daylight
21 Oct - 12:48:39 10° SW 12:52:14 39° SE 12:55:50 10° ENE daylight
21 Oct - 15:01:22 10° WNW 15:03:57 16° NNW 15:07:02 10° NNE daylight
21 Oct - 21:44:06 10° NNW 21:55:46 26° NNE 22:10:26 10° E visible
21 Oct - 23:55:48 10° NW 00:13:31 64° NE 00:32:35 10° ESE visible
22 Oct - 02:11:29 10° WNW 02:31:01 61° SW 02:47:22 10° SE visible
22 Oct - 04:34:55 10° WSW 04:48:05 23° SSW 04:58:12 10° SSE visible
22 Oct - 11:35:48 10° S 11:38:13 14° SSE 11:40:22 10° ESE daylight
22 Oct - 13:46:19 10° WSW 13:49:44 37° NNW 13:53:37 10° NE daylight
22 Oct - 20:31:24 10° N 20:38:13 15° NNE 20:46:34 10° ENE visible
22 Oct - 22:41:01 10° NNW 22:55:55 44° NE 23:14:16 10° ESE visible
23 Oct - 00:54:21 10° NW 01:13:22 85° SW 01:32:00 10° SE visible
23 Oct - 03:13:21 10° W 03:30:48 38° SW 03:44:43 10° SSE visible
23 Oct - 05:43:37 10° SW 05:48:45 12° SSW 05:53:11 10° S daylight
23 Oct - 12:32:04 10° SW 12:36:02 62° SE 12:39:42 10° ENE daylight
23 Oct - 21:27:12 10° NNW 21:38:38 28° NE 21:53:40 10° E visible
23 Oct - 23:38:37 10° NW 23:55:41 71° NE 00:15:22 10° ESE visible
24 Oct - 01:54:18 10° WNW 02:13:14 56° SW 02:30:12 10° SE visible
24 Oct - 04:18:16 10° WSW 04:31:09 22° SSW 04:41:23 10° SSE visible
24 Oct - 11:18:18 10° SSW 11:22:05 22° SSE 11:25:08 10° E daylight
24 Oct - 13:30:27 10° W 13:33:33 24° NNW 13:36:46 10° NNE daylight
24 Oct - 20:14:46 10° N 20:21:36 16° NNE 20:30:08 10° ENE visible
24 Oct - 22:23:59 10° NW 22:38:20 49° NE 22:57:05 10° ESE visible
25 Oct - 00:37:12 10° WNW 00:55:28 78° SW 01:14:41 10° SE visible
25 Oct - 02:56:28 10° W 03:13:24 34° SSW 03:27:38 10° SSE visible
25 Oct - 05:27:07 10° SW 05:32:21 12° SSW 05:36:58 10° S visible
25 Oct - 10:05:05 10° S 10:07:20 12° SSE 10:09:19 10° SE daylight
25 Oct - 12:15:31 10° SW 12:19:51 84° NW 12:23:30 10° NE daylight
25 Oct - 21:10:21 10° NNW 21:21:26 31° NE 21:36:43 10° E visible
25 Oct - 23:21:34 10° NW 23:37:49 78° NE 23:57:58 10° ESE visible
26 Oct - 01:37:19 10° WNW 01:55:31 50° SW 02:12:55 10° SE visible
26 Oct - 04:01:46 10° WSW 04:14:16 20° SSW 04:24:35 10° SSE visible
26 Oct - 11:01:02 10° SW 11:05:57 33° SSE 11:09:32 10° E daylight
26 Oct - 13:14:47 10° WNW 13:17:18 17° NW 13:19:46 10° N daylight
26 Oct - 19:58:04 10° N 20:04:53 17° NE 20:13:39 10° ENE visible
26 Oct - 22:07:03 10° NW 22:20:42 54° NE 22:39:43 10° ESE visible
27 Oct - 00:20:14 10° WNW 00:37:36 71° SW 00:57:12 10° SE visible
27 Oct - 02:39:46 10° W 02:56:05 31° SSW 03:10:30 10° SSE visible
27 Oct - 05:10:20 10° SW 05:16:02 12° SSW 05:21:01 10° S visible
27 Oct - 09:46:39 10° SSW 09:51:17 18° SSE 09:54:45 10° ESE daylight
27 Oct - 11:59:00 10° WSW 12:03:36 55° NW 12:07:13 10° NE daylight
27 Oct - 20:53:33 10° NNW 21:04:12 33° NE 21:19:36 10° E visible
27 Oct - 23:04:39 10° NW 23:20:01 85° NE 23:40:23 10° SE visible
28 Oct - 01:20:31 10° W 01:37:53 45° SSW 01:55:28 10° SE visible
28 Oct - 03:45:21 10° WSW 03:57:29 19° SSW 04:07:48 10° SSE visible
28 Oct - 08:32:05 10° SSW 08:35:49 13° SSE 08:38:53 10° SE daylight
28 Oct - 10:43:50 10° SW 10:49:46 50° SSE 10:53:44 10° ENE daylight
28 Oct - 12:59:34 10° WNW 13:01:00 12° NW 13:02:24 10° NNW daylight
28 Oct - 19:41:21 10° N 19:48:06 18° NE 19:57:04 10° ENE visible
28 Oct - 21:50:14 10° NW 22:03:06 59° NE 22:22:10 10° ESE visible
29 Oct - 00:03:25 10° WNW 00:19:50 64° SW 00:39:33 10° SE visible
29 Oct - 02:23:15 10° W 02:38:51 29° SSW 02:53:16 10° SSE visible
29 Oct - 04:53:17 10° SW 04:59:44 13° SSW 05:05:21 10° S visible
29 Oct - 07:16:37 10° S 07:19:27 11° S 07:21:57 10° SSE daylight
29 Oct - 09:28:42 10° SSW 09:35:11 27° SSE 09:39:30 10° E daylight
29 Oct - 11:42:29 10° WSW 11:47:17 38° NW 11:50:52 10° NNE daylight
29 Oct - 20:36:50 10° NNW 20:46:56 37° NE 21:02:19 10° E visible
29 Oct - 22:47:53 10° NW 23:02:18 87° SW 23:22:37 10° SE visible
